Decimomannu, Italy

8:38 AM CEST on May 24, 2018 (GMT +0200)
Decimomannu Mil

Weather History for LIED - October, 2011

Change the Weather History Date:

Friday, October 28, 2011

  Actual Average Record
Temperature  
Mean Temperature 68 °F -  
Max Temperature 77 °F 66 °F 84 °F (1999)
Min Temperature 60 °F 48 °F 46 °F (2010)
Cooling Degree Days 4    
Growing Degree Days 18 (Base 50)    
Moisture  
Dew Point 62 °F    
Average Humidity 80    
Maximum Humidity 90    
Minimum Humidity 64    
Precipitation  
Precipitation 0.00 in 0.09 in - ()
Sea Level Pressure  
Sea Level Pressure 30.08 in    
Wind  
Wind Speed 8 mph ()    
Max Wind Speed 18 mph    
Max Gust Speed -    
Visibility 6.7 miles    
Events      
Averages and records for this station are not official NWS values.
T = Trace of Precipitation, MM = Missing Value Source: Averaged Metar Reports

Daily Weather History Graph

Daily Weather History Graph

Search for Another Location

Airport or City:

Astronomy

Oct. 28, 2011 Rise Set
Actual Time 7:47 AM CEST 6:28 PM CEST
Civil Twilight 7:19 AM CEST 6:55 PM CEST
Nautical Twilight 6:48 AM CEST 7:27 PM CEST
Astronomical Twilight 6:16 AM CEST 7:58 PM CEST
Moon 9:42 AM CEST (10/28) 7:36 PM CEST (10/28)
Length of Visible Light 11h 36m
Length of Day
10h 41m
Waxing Crescent, 4% of the Moon is Illuminated
Oct 28
Waxing Crescent
Nov 2
First Quarter
Nov 10
Full
Nov 18
Last Quarter
Nov 25
New

Hourly Weather History & Observations

Time (CEST) Temp. Dew Point Humidity Pressure Visibility Wind Dir Wind Speed Gust Speed Precip Events Conditions
12:55 AM 62.6 °F 57.2 °F 82% 30.01 in 6.2 mi ESE 9.2 mph - N/A   Scattered Clouds
1:55 AM 62.6 °F 57.2 °F 82% 30.04 in 6.2 mi SE 6.9 mph - N/A   Scattered Clouds
2:00 AM 63 °F 58 °F 78% 30.04 in 7 mi SE 6.9 mph - -   Partly Cloudy
2:55 AM 60.8 °F 57.2 °F 88% 30.04 in 6.2 mi ESE 6.9 mph - N/A   Scattered Clouds
3:55 AM 60.8 °F 57.2 °F 88% 30.04 in 6.2 mi SE 9.2 mph - N/A   Scattered Clouds
4:55 AM 60.8 °F 57.2 °F 88% 30.04 in 6.2 mi ENE 4.6 mph - N/A   Scattered Clouds
5:00 AM 60 °F 57 °F 87% 30.04 in 7 mi ENE 4.6 mph - -   Partly Cloudy
5:55 AM 60.8 °F 57.2 °F 88% 30.04 in 6.2 mi ESE 4.6 mph - N/A   Scattered Clouds
6:55 AM 62.6 °F 59.0 °F 88% 30.04 in 6.2 mi ENE 6.9 mph - N/A   Scattered Clouds
8:55 AM 66.2 °F 60.8 °F 83% 30.06 in 6.2 mi East 11.5 mph - N/A   Scattered Clouds
9:55 AM 69.8 °F 62.6 °F 78% 30.06 in 6.2 mi ESE 8.1 mph - N/A   Scattered Clouds
10:55 AM - - N/A% 30.06 in 6.2 mi ESE 11.5 mph - N/A   Scattered Clouds
11:00 AM 72 °F 65 °F 72% 30.09 in 9 mi ESE 11.5 mph - -   Partly Cloudy
11:55 AM 75.2 °F 66.2 °F 73% 30.09 in 6.2 mi ESE 17.3 mph - N/A   Scattered Clouds
12:55 PM 75.2 °F 66.2 °F 73% 30.09 in 6.2 mi SE 18.4 mph - N/A   Scattered Clouds
1:55 PM 75.2 °F 64.4 °F 69% 30.09 in 6.2 mi SSE 17.3 mph - N/A   Mostly Cloudy
2:00 PM 75 °F 65 °F 64% 30.10 in 9 mi SSE 17.3 mph - -   Mostly Cloudy
2:55 PM 75.2 °F 64.4 °F 69% 30.09 in 6.2 mi SE 17.3 mph - N/A   Scattered Clouds
3:55 PM 73.4 °F 64.4 °F 73% 30.09 in 6.2 mi SE 16.1 mph - N/A   Mostly Cloudy
4:55 PM 71.6 °F 64.4 °F 78% 30.09 in 6.2 mi East 11.5 mph - N/A   Mostly Cloudy
5:00 PM 72 °F 65 °F 73% 30.11 in 9 mi East 11.5 mph - -   Mostly Cloudy
5:55 PM 71.6 °F 64.4 °F 78% 30.09 in 6.2 mi ESE 10.4 mph - N/A   Mostly Cloudy
6:55 PM 69.8 °F 64.4 °F 83% 30.09 in 6.2 mi SE 5.8 mph - N/A   Scattered Clouds
7:55 PM 69.8 °F 64.4 °F 83% 30.12 in 6.2 mi SE 5.8 mph - N/A   Scattered Clouds
8:00 PM 70 °F 65 °F 80% 30.15 in 7 mi SE 5.8 mph - -   Mostly Cloudy
8:55 PM 68.0 °F 64.4 °F 88% 30.15 in 6.2 mi ESE 5.8 mph - N/A   Scattered Clouds
9:55 PM 66.2 °F 62.6 °F 88% 30.15 in 6.2 mi ESE 4.6 mph - N/A   Scattered Clouds
10:55 PM 66.2 °F 62.6 °F 88% 30.15 in 6.2 mi ESE 5.8 mph - N/A   Scattered Clouds
11:00 PM 65 °F 63 °F 90% 30.16 in 9 mi ESE 5.8 mph - -   Partly Cloudy